Advanced Flyers

Silicon Valley's Premier Flying Club, Palo Alto

Call (650) 494-1646

BestTraining Fleet
Club Facilities

24
Hour
Aircraft Access
Online Scheduling
QualityFlight Instruction
Member Services

EasyMembership Application
Credit-card Billing

Large Fleet of Cessna Aircraft

Learn to fly using the world's favorite airplanes
Cessna Skyhawk 172SP Our Cessna 172SP Skyhawks can carry four people and include GPS navigation, autopilot, dual radios, color map displays and more. We have analog gauge and G1000 avionics equipped models.

Affordable Trainers

We have options to fit everyone's budget
Piper Warrior For student pilots and the lowest-cost training, we have very affordable Piper Warrior and Archer four-seat aircraft, starting at only $99/hour !

Great Training Location

Real-world flying, in the heart of silicon valley
Palo Alto Airport Flying out of Palo Alto, you'll learn to navigate like a pro through the complex San Francisco Bay airspace. You'll then be able to handle other busy airspaces such as Los Angeles or Las Vegas!

FAA-Approved Test Center

Take all your knowledge tests conveniently in-house
PSI LaserGrade Logo We're certified as an FAA testing center so you can take your FAA knowledge tests right here using the PSI / LaserGrade testing system. Call (800) 211-2754 to pre-schedule or take a walk-in exam.

Save Time with Simulation

Experience realistic scenarios faster and cheaper

Redbird FMX-1000 Simulator
Redbird FMX Flight Simulator Screens

Our Redbird FMX simulator is ideal for introductory lessons, instrument training or familiarizing yourself with analog instrument or Garmin G1000, G530, G430 avionics operation. With its motion platform and eight screens, you'll be immersed in the illusion of flight. Simulator videos can be seen here and here.

Emergency maneuvers can be practiced safely, conveniently and paused for review and discussion with an instructor.

Glass Cockpit Training

Step into the future of aviation technology

Garmin G1000
G1000 Cabin

Most aircaft produced today have Garmin G1000 instrumentation as a standard feature. The system's dual 10.5 inch screens reveal airspeed, altitude, attitude, heading, navigation courses and communication channels, engine parameters, zoomable maps, airport diagrams, terrain, obstacles and more.

Using our G1000 equipped aircraft or our Redbird FMX simulator, you can safely and easily learn this new system in a short time.

KPAO 232352Z 35005KT 30SM BKN200 18/10 A3027 KSQL 232347Z 05003KT 10SM BKN200 17/10 A3028 KHAF 240035Z AUTO 33010KT 7SM BKN120 14/10 A3029 RMK AO2 KLVK 232353Z 07009KT 10SM CLR 17/03 A3027 RMK AO2 SLP249 T01720033 10183 20139 58006 $